모두
Montichiari Airport (브레시아 IT) VBS 기상
|
브레시아 IT (VBS / LIPO)
맑은 하늘
가벼운 바람 |
|
23 °C |
VBS 터미널 지역 예측
| Date | Time (CEST) | Flight Rules | Wind Dir. | Speed | Type | Height AGL (ft) | Visibility | Remarks | ||||||
|---|---|---|---|---|---|---|---|---|---|---|---|---|---|---|
최근 VBS METAR 이력
| Date | Time (CEST) | Flight Rules | Wind Dir. | Speed | Type | Height AGL (ft) | Visibility | Temp (°C) | Temp (°F) | Dew Point (°C) | Dew Point (°F) | Rel. Humid. | Pressure | Density Altitude | Remarks |
|---|---|---|---|---|---|---|---|---|---|---|---|---|---|---|---|
| 01-9월 | 00:50 | VFR | 200° | 5 kt | 10000 meters | 23° | 73° | 19° | 66° | 78% | 1014 mb | 1,293 ft | |||
| 01-9월 | 00:20 | VFR | 170° | 2 kt | 10000 meters | 24° | 75° | 19° | 66° | 74% | 1014 mb | 1,413 ft | |||
| 31-8월 | 23:50 | VFR | 140° | 1 kt | 10000 meters | 24° | 75° | 18° | 64° | 69% | 1014 mb | 1,413 ft | |||
| 31-8월 | 23:20 | VFR | Variable | 2 kt | 10000 meters | 25° | 77° | 17° | 62° | 61% | 1013 mb | 1,562 ft | |||
| 31-8월 | 22:50 | VFR | 100° | 3 kt | 10000 meters | 25° | 77° | 17° | 62° | 61% | 1013 mb | 1,562 ft | |||
| 31-8월 | 22:20 | VFR | 290° | 5 kt | 10000 meters | 25° | 77° | 18° | 64° | 65% | 1013 mb | 1,562 ft | |||
| 31-8월 | 21:50 | VFR | 270° | 6 kt | 10000 meters | 27° | 80° | 17° | 62° | 54% | 1013 mb | 1,802 ft | |||
| 31-8월 | 21:20 | VFR | 280° | 5 kt | 10000 meters | 27° | 80° | 17° | 62° | 54% | 1013 mb | 1,802 ft | |||
| 31-8월 | 20:50 | VFR | 260° | 5 kt | 10000 meters | 29° | 84° | 17° | 62° | 48% | 1013 mb | 2,042 ft | |||
| 31-8월 | 20:20 | VFR | 240° | 4 kt | 10000 meters | 29° | 84° | 17° | 62° | 48% | 1012 mb | 2,072 ft | |||
| 31-8월 | 19:50 | VFR | 250° | 5 kt | 10000 meters | 29° | 84° | 17° | 62° | 48% | 1012 mb | 2,072 ft | |||
| 31-8월 | 19:20 | VFR | 260° | 5 kt | 10000 meters | 31° | 87° | 17° | 62° | 43% | 1012 mb | 2,312 ft | |||
| 31-8월 | 18:50 | VFR | 250° | 5 kt | 10000 meters | 32° | 89° | 17° | 62° | 41% | 1012 mb | 2,432 ft | |||
| 31-8월 | 17:50 | VFR | 250° | 5 kt | 10000 meters | 32° | 89° | 16° | 60° | 38% | 1013 mb | 2,402 ft | |||
| gap in available data | |||||||||||||||
| 31-8월 | 08:50 | VFR | Variable | 1 kt | 10000 meters | 24° | 75° | 18° | 64° | 69% | 1014 mb | 1,413 ft | |||
| 31-8월 | 08:20 | VFR | Variable | 1 kt | 10000 meters | 24° | 75° | 18° | 64° | 69% | 1014 mb | 1,413 ft | |||
| 31-8월 | 07:50 | VFR | 230° | 2 kt | 10000 meters | 21° | 69° | 18° | 64° | 83% | 1014 mb | 1,053 ft | |||
| 31-8월 | 07:20 | VFR | 210° | 3 kt | 10000 meters | 21° | 69° | 18° | 64° | 83% | 1014 mb | 1,053 ft | |||
| 31-8월 | 06:50 | VFR | 10° | 2 kt | 10000 meters | 21° | 69° | 17° | 62° | 78% | 1014 mb | 1,053 ft | |||
| 31-8월 | 06:20 | VFR | 30° | 3 kt | 10000 meters | 21° | 69° | 17° | 62° | 78% | 1014 mb | 1,053 ft | |||
| 31-8월 | 05:50 | VFR | 10° | 6 kt | Few |
12,000 |
10000 meters | 21° | 69° | 17° | 62° | 78% | 1014 mb | 1,053 ft | |
| 31-8월 | 05:20 | VFR | 30° | 4 kt | 10000 meters | 21° | 69° | 17° | 62° | 78% | 1014 mb | 1,053 ft | |||
| 31-8월 | 04:50 | VFR | 360° | 6 kt | Few |
8,900 |
10000 meters | 22° | 71° | 18° | 64° | 78% | 1014 mb | 1,173 ft | |
| 31-8월 | 04:20 | VFR | 10° | 3 kt | 10000 meters | 21° | 69° | 18° | 64° | 83% | 1014 mb | 1,053 ft | |||
로그인
| 귀하의 브라우저는 지원되지 않습니다.. 브라우저를 업그레이드하세요 |
